DELTA 1 DEB, 10829

Orbit data source: Space-Track

DELTA 1 DEB, 10829 is space debris in SSO originally from a launch on Thu, 29 Jul 1976 UTC launched from the Air Force Western Test Range (AFWTR). Debris objects in space refer to the collection of defunct objects orbiting the Earth. Examples of debris include non-operational satellites, rocket bodies, and fragments generated from explosions, collisions, or faulty payload assembly.

Loading next visibility...
Identifier
10829, 1976-077BZ
Orbit
SSO
Country
Flag of USUS
Related business
Manufacturer
Unknown
Mission
Spacecraft
Bus & Motor
Unknown
Mass
Unknown
Launch date (UTC)
1976-07-29 (49 years ago)
Launch vehicle
Unknown
Launch site
Air Force Western Test Range (AFWTR)
Object type
Payload
Rocket body
Debris
Shape & HBR
Unknown shape, 0.1 m
Radar Cross Section
Small (<0.1 m²)

Expand to show TLE details & history
Last TLE update: 2 days ago

TLE from 2 days ago
0 DELTA 1 DEB
1 10829U 76077BZ  25290.54852041  .00000048  00000-0  71111-3 0  9990
2 10829 101.7438 252.8540 0038474 204.3365 222.9816 12.36705038219143
Epoch: 2025-10-17T13:09Z
TLE epoch observation values (Epoch: 2025-10-17T13:09:52.163Z)
Latitude
64.42205°
Longitude
3.48627°
Altitude
1,553.821 km
Speed
7.086 km/s
True Right ascension
15h 08m 59s
True Declination
64° 18' 05"
Sunlit
Object was in daylight at epoch
Visualization orbit readout
Latitude
Unknown
Longitude
Unknown
Altitude
Unknown
Speed
Unknown
Apparent Right ascension
Unknown
Apparent Declination
Unknown
Sunlit
N/A
Visualization observer readout
Local Sidereal Time
12:47:58
Azimuth
Unknown
Elevation
Unknown
Doppler factor
Unknown
Orbital elements
Apogee altitude
1,548.546 km
Perigee altitude
1,487.786 km
Semi-major axis
7,896.303 km
Eccentricity
0.00385
Inclination
101.7438°
RAAN
252.854°
Arg. of periapsis
204.3365°
True anomaly
222.68208°
Mean anomaly
222.9816°
Eccentric anomaly
222.83173°
Mean motion
3.0932 °/min
Orbital period
116.38 mins
BSTAR
0.00071111
Loading maneuver chart data...
Computing Atmospheric mass density...
Loading historical data...
Loading historical data...
Loading historical data...
Loading historical data...
Loading historical data...
Loading historical data...
Loading historical data...

Documentation

Showing up to 5 results
|